[[{"header":{"parameterUnit":"m.s-1","parameterCategory":1,"la1":30.2991,"la2":30.254,"lo1":-89.0895,"lo2":-89.0444,"dy":0.0017,"dx":0.0017,"nx":28,"ny":28,"refTime":"2024-02-08T03:00:00:Z","depth":0,"parameterNumber":2,"parameterNumberName":"U-component_of_WINDS"},"data":[0,0,0,0,0,0,0,0,0,0,0,0,0,0,0,0,0,0,0,0,0,0,0,0,0,0,0,0,0,0,0,0,0,0,0,0,0,0,0,0,0,0,0,0,0,0,0,0,0,0,0,0,0,0,0,0,0,0,-2.7211,-2.7211,0,-2.7264,-2.7264,-2.7265,-2.7246,-2.7245,-2.7244,-2.7243,-2.7296,-2.7298,-2.7301,0,0,0,0,0,0,0,0,0,0,0,0,0,-2.7091,-2.7094,-2.7211,-2.7211,-2.7212,-2.7264,-2.7264,-2.7265,-2.7246,-2.7245,-2.7243,-2.7242,-2.7295,-2.7298,-2.7301,0,0,0,0,0,0,0,0,0,0,0,0,0,-2.7144,-2.7094,-2.7211,-2.7209,-2.7209,-2.7264,-2.7264,-2.7265,-2.7247,-2.7245,-2.7243,-2.7241,-2.7294,-2.7298,-2.7302,-2.736,0,0,-2.7313,-2.7315,0,0,0,0,0,0,0,0,-2.7141,-2.7148,-2.7208,-2.7209,-2.721,-2.7247,-2.7242,-2.7297,-2.7247,-2.7232,-2.7243,-2.7241,-2.7281,-2.7286,-2.7299,-2.7363,-2.7365,-2.7313,-2.7316,-2.7317,-2.7318,0,0,0,0,0,0,0,-2.7137,-2.7146,-2.7232,-2.7209,-2.721,-2.7205,-2.721,-2.7252,-2.7266,-2.7234,-2.7232,-2.7239,-2.7281,-2.7296,-2.7301,-2.7366,-2.7313,-2.7317,-2.7319,-2.732,-2.7479,-2.7481,0,0,0,0,0,0,-2.7133,-2.7143,-2.723,-2.7233,-2.717,-2.7208,-2.7215,-2.7236,-2.7265,-2.7268,-2.724,-2.7238,-2.729,-2.7296,-2.7302,-2.7372,-2.7317,-2.7321,-2.7323,-2.7477,-2.7479,-2.7481,0,0,0,0,0,0,-2.7131,-2.7141,-2.7228,-2.7188,-2.7198,-2.7212,-2.7237,-2.7238,-2.7253,-2.7271,-2.7273,-2.7253,-2.7289,-2.7297,-2.7346,-2.7374,-2.7323,-2.7326,-2.7475,-2.7478,-2.748,-2.7512,0,0,0,0,0,0,-2.7127,-2.7141,-2.7163,-2.7188,-2.7201,-2.7271,-2.7239,-2.7241,-2.726,-2.7257,-2.7283,-2.7286,-2.7288,-2.734,-2.735,-2.7378,-2.7329,-2.7472,-2.7476,-2.748,-2.7509,-2.7516,-2.7522,0,0,0,0,0,-2.7123,-2.717,-2.7165,-2.7175,-2.7229,-2.7273,-2.7279,-2.7282,-2.7262,-2.7285,-2.7296,-2.7285,-2.7369,-2.7346,-2.7356,-2.7386,-2.7471,-2.7475,-2.7479,-2.7506,-2.7515,-2.7522,0,0,0,0,0,0,-2.7148,-2.7174,-2.7168,-2.7224,-2.7246,-2.7269,-2.7298,-2.7291,-2.7319,-2.7315,-2.7316,-2.7322,-2.7372,-2.7384,-2.7357,-2.7443,-2.7417,-2.7424,-2.7434,-2.7442,-2.7449,-2.7444,-2.7332,0,0,0,0,0,-2.716,-2.7193,-2.7214,-2.7262,-2.7273,-2.7284,-2.7303,-2.7303,-2.7325,-2.7335,-2.7349,-2.7371,-2.7403,-2.7423,-2.7453,-2.7511,-2.7515,-2.7536,-2.7543,-2.7548,-2.7554,-2.7583,-2.7593,-2.7496,-2.7496,-2.7496,0,0,-2.7185,-2.7203,-2.7224,-2.7267,-2.7284,-2.7318,-2.7292,-2.7329,-2.7354,-2.734,-2.7387,-2.7398,-2.7423,-2.7476,-2.75,-2.7488,-2.7582,-2.7554,-2.7558,-2.756,-2.7589,-2.7598,-2.7606,-2.7499,-2.7498,-2.7498,0,0,-2.7248,-2.7266,-2.7307,-2.7325,-2.7351,-2.7358,-2.7368,-2.7392,-2.7399,-2.7446,-2.7436,-2.7465,-2.752,-2.7537,-2.7554,-2.7623,-2.7613,-2.7633,-2.7667,-2.7696,-2.7703,-2.771,-2.7733,-2.7742,-2.7638,-2.7638,-2.7638,0,-2.7275,-2.7326,-2.7329,-2.7366,-2.7385,-2.7375,-2.7416,-2.7433,-2.7468,-2.748,-2.7466,-2.7533,-2.755,-2.7606,-2.7623,-2.7637,-2.7647,-2.7629,-2.7702,-2.7709,-2.7715,-2.7737,-2.7746,-2.764,-2.764,-2.764,-2.764,0,-2.7358,-2.7394,-2.7424,-2.7457,-2.748,-2.7519,-2.7527,-2.7549,-2.7547,-2.7555,-2.7602,-2.7621,-2.7654,-2.7668,-2.7667,-2.7724,-2.7715,-2.7702,-2.7675,-2.7726,-2.7747,-2.7756,-2.7643,-2.7643,-2.7642,-2.7641,0,0,-2.7437,-2.7472,-2.7482,-2.7497,-2.7525,-2.7552,-2.7591,-2.7624,-2.7642,-2.7666,-2.7698,-2.7744,-2.7731,-2.775,-2.775,-2.7776,-2.7828,-2.7759,-2.776,-2.777,-2.7891,-2.7899,-2.7909,-2.7822,-2.7824,-2.7825,-2.7888,0,-2.75,-2.7568,-2.7571,-2.7633,-2.7665,-2.7655,-2.7689,-2.7709,-2.7718,-2.7746,-2.7756,-2.7788,-2.7769,-2.778,-2.7806,-2.7816,-2.7852,-2.7812,-2.785,-2.7851,-2.7842,-2.792,-2.793,-2.7988,-2.7896,-2.7898,-2.7899,0,-2.7584,-2.761,-2.7675,-2.7698,-2.7711,-2.7741,-2.7771,-2.7798,-2.7821,-2.7825,-2.7846,-2.7843,-2.7881,-2.7854,-2.7907,-2.7879,-2.7895,-2.7903,-2.7905,-2.7908,-2.7877,-2.7923,-2.8007,-2.8015,-2.7912,-2.7911,-2.791,0,-2.7632,-2.7685,-2.773,-2.7743,-2.7771,-2.7792,-2.7805,-2.7826,-2.7845,-2.7871,-2.7883,-2.7914,-2.793,-2.7953,-2.7957,-2.7938,-2.8009,-2.7983,-2.8013,-2.8013,-2.8027,-2.8026,-2.8113,-2.804,-2.804,-2.804,-2.804,0,-2.7702,-2.7741,-2.7752,-2.7779,-2.7823,-2.7826,-2.7869,-2.788,-2.7899,-2.7928,-2.7923,-2.795,-2.7955,-2.7983,-2.7987,-2.8029,-2.8037,-2.8041,-2.8041,-2.804,-2.8039,-2.8049,-2.8045,-2.8042,-2.8042,-2.8042,-2.8041,0,-2.7763,-2.7772,-2.782,-2.7843,-2.785,-2.7881,-2.79,-2.7926,-2.7934,-2.7971,-2.798,-2.7992,-2.8025,-2.8032,-2.8071,-2.8074,-2.8123,-2.812,-2.8115,-2.8114,-2.8143,-2.8139,-2.8238,-2.825,-2.8172,-2.8172,-2.8173,0,-2.7806,-2.7836,-2.7862,-2.7881,-2.7895,-2.7926,-2.7945,-2.795,-2.797,-2.7998,-2.8021,-2.8053,-2.8079,-2.8131,-2.8143,-2.8173,-2.817,-2.8202,-2.8174,-2.8172,-2.8168,-2.8165,-2.8168,-2.8207,-2.8208,-2.8209,-2.8209,0,-2.7881,-2.7883,-2.7912,-2.7942,-2.7965,-2.7989,-2.8011,-2.8027,-2.8034,-2.8057,-2.8091,-2.8111,-2.8151,-2.8182,-2.8212,-2.8224,-2.8218,-2.8218,-2.8226,-2.8225,-2.822,-2.8221,-2.8128,-2.8216,-2.8215,-2.8214,-2.8214,-2.8214,-2.7933,-2.7958,-2.7981,-2.8012,-2.803,-2.8051,-2.8076,-2.8087,-2.8115,-2.8148,-2.8149,-2.8185,-2.8207,-2.8246,-2.826,-2.8288,-2.8278,-2.829,-2.8293,-2.8295,-2.8297,-2.8217,-2.8294,-2.8293,-2.8293,-2.8293,-2.8293,0,-2.8006,-2.8019,-2.8048,-2.808,-2.8105,-2.8097,-2.8122,-2.8142,-2.8174,-2.8195,-2.8221,-2.8259,-2.8289,-2.8304,-2.8334,-2.8353,-2.8351,-2.8361,-2.8359,-2.8361,-2.8305,-2.8294,-2.8362,-2.8362,-2.8362,-2.8362,-2.8362,-2.8362,-2.8046,-2.8089,-2.8094,-2.8145,-2.8159,-2.8194,-2.8209,-2.8228,-2.8244,-2.8287,-2.8312,-2.8322,-2.834,-2.8371,-2.8399,-2.8402,-2.8413,-2.8424,-2.8426,-2.8372,-2.8365,-2.8359,-2.8348,-2.8426,-2.8427,-2.8479,-2.848,-2.848]},{"header":{"parameterUnit":"m.s-1","parameterCategory":1,"la1":30.2991,"la2":30.254,"lo1":-89.0895,"lo2":-89.0444,"dy":0.0017,"dx":0.0017,"nx":28,"ny":28,"refTime":"2024-02-08T03:00:00:Z","depth":0,"parameterNumber":3,"parameterNumberName":"V-component_of_WINDS"},"data":[0,0,0,0,0,0,0,0,0,0,0,0,0,0,0,0,0,0,0,0,0,0,0,0,0,0,0,0,0,0,0,0,0,0,0,0,0,0,0,0,0,0,0,0,0,0,0,0,0,0,0,0,0,0,0,0,0,0,1.5745,1.5747,0,1.5931,1.5933,1.5936,1.601,1.601,1.601,1.6009,1.62,1.6205,1.621,0,0,0,0,0,0,0,0,0,0,0,0,0,1.5454,1.5459,1.5745,1.5747,1.5749,1.5931,1.5934,1.5936,1.601,1.601,1.6009,1.6009,1.6198,1.6204,1.6211,0,0,0,0,0,0,0,0,0,0,0,0,0,1.5604,1.5461,1.5744,1.5808,1.5816,1.593,1.5934,1.5937,1.6011,1.601,1.6009,1.6009,1.6196,1.6204,1.6212,1.6276,0,0,1.6237,1.6241,0,0,0,0,0,0,0,0,1.5596,1.5615,1.5797,1.5804,1.5813,1.5947,1.5901,1.6051,1.6011,1.5937,1.6009,1.6008,1.6116,1.6131,1.6167,1.6285,1.6293,1.6238,1.6243,1.6246,1.6249,0,0,0,0,0,0,0,1.5585,1.5607,1.5819,1.5799,1.5809,1.5828,1.5849,1.593,1.6028,1.5943,1.5949,1.597,1.612,1.6159,1.6172,1.6296,1.6238,1.6245,1.625,1.6253,1.6479,1.648,0,0,0,0,0,0,1.5564,1.5598,1.5813,1.5824,1.57,1.5834,1.5857,1.5905,1.6027,1.6045,1.597,1.5973,1.6145,1.6163,1.6179,1.6265,1.6246,1.6254,1.6259,1.6478,1.6479,1.648,0,0,0,0,0,0,1.5558,1.5583,1.5805,1.5713,1.5743,1.584,1.5892,1.5909,1.5948,1.6048,1.6066,1.5992,1.6146,1.6168,1.6252,1.6273,1.6258,1.6265,1.6477,1.6478,1.648,1.6435,0,0,0,0,0,0,1.5549,1.558,1.5605,1.5713,1.5747,1.5875,1.5894,1.5913,1.5962,1.5967,1.6073,1.609,1.6147,1.624,1.626,1.6284,1.6272,1.6475,1.6477,1.6479,1.6435,1.6435,1.6435,0,0,0,0,0,1.5538,1.5584,1.5606,1.5631,1.5781,1.5875,1.5895,1.596,1.5963,1.599,1.6054,1.6086,1.6266,1.6248,1.6272,1.6298,1.6474,1.6477,1.6479,1.6435,1.6435,1.6435,0,0,0,0,0,0,1.5476,1.56,1.5625,1.5707,1.578,1.5888,1.5923,1.5957,1.6031,1.6032,1.6109,1.6133,1.6211,1.6263,1.6239,1.6368,1.6373,1.638,1.6331,1.6332,1.6332,1.6318,1.6278,0,0,0,0,0,1.5472,1.5538,1.5643,1.5705,1.574,1.5825,1.5869,1.5913,1.5992,1.6023,1.6094,1.6169,1.6243,1.629,1.6363,1.6443,1.6468,1.6472,1.6472,1.6471,1.6477,1.6525,1.6529,1.6488,1.6488,1.6488,0,0,1.5464,1.5539,1.5576,1.5694,1.5756,1.5824,1.5851,1.5921,1.5972,1.6034,1.6119,1.6173,1.6262,1.6345,1.6385,1.639,1.6494,1.6474,1.6473,1.648,1.6528,1.6532,1.6535,1.649,1.6489,1.6489,0,0,1.5484,1.5547,1.5607,1.5669,1.5763,1.5819,1.5833,1.5937,1.5976,1.6062,1.611,1.6172,1.6297,1.6359,1.6407,1.6453,1.6486,1.6474,1.6474,1.6519,1.6523,1.6526,1.6544,1.6549,1.6479,1.6479,1.6479,0,1.5462,1.5566,1.5634,1.5702,1.5753,1.5812,1.5874,1.5931,1.6043,1.6078,1.6082,1.6242,1.6306,1.6405,1.6416,1.6452,1.6472,1.6463,1.6517,1.6521,1.6525,1.6543,1.6549,1.6478,1.6478,1.6478,1.6478,0,1.5536,1.5607,1.5645,1.5753,1.5808,1.5872,1.5951,1.5999,1.6038,1.6094,1.6182,1.6261,1.6352,1.6379,1.6417,1.6484,1.6485,1.6501,1.6509,1.6526,1.6544,1.6552,1.6475,1.6476,1.6476,1.6477,0,0,1.5522,1.5668,1.5681,1.5731,1.5839,1.5896,1.5964,1.6054,1.6095,1.617,1.623,1.6335,1.6352,1.6407,1.6452,1.6492,1.6526,1.6505,1.6508,1.6508,1.6607,1.6595,1.6602,1.6548,1.655,1.6551,1.6601,0,1.5559,1.5683,1.5746,1.5844,1.5912,1.5969,1.6029,1.6102,1.6156,1.6222,1.6282,1.6356,1.6372,1.6406,1.6448,1.6513,1.6547,1.651,1.6606,1.6608,1.6584,1.6612,1.6599,1.6642,1.6608,1.6609,1.661,0,1.5618,1.5694,1.5798,1.59,1.5931,1.5983,1.6072,1.6134,1.6218,1.6255,1.6317,1.6362,1.6437,1.6437,1.6542,1.6515,1.6558,1.6596,1.66,1.6612,1.6611,1.6627,1.6657,1.6664,1.6622,1.6621,1.662,0,1.56,1.5728,1.5808,1.5849,1.597,1.6005,1.6057,1.6141,1.6192,1.6269,1.6303,1.6388,1.6434,1.6499,1.6566,1.656,1.6665,1.6671,1.6699,1.6697,1.672,1.6718,1.6759,1.6744,1.6744,1.6744,1.6743,0,1.5634,1.5696,1.5802,1.5851,1.5922,1.5995,1.6064,1.6121,1.6195,1.6257,1.6311,1.6368,1.6452,1.652,1.6573,1.6653,1.6673,1.6706,1.6719,1.6702,1.6698,1.6732,1.6732,1.6745,1.6745,1.6745,1.6744,0,1.5627,1.5699,1.5791,1.5898,1.5926,1.5974,1.6067,1.6117,1.6174,1.6252,1.6274,1.6364,1.6447,1.652,1.6629,1.6665,1.6747,1.6763,1.6719,1.6727,1.6752,1.6749,1.6818,1.6832,1.6805,1.6805,1.6805,0,1.5645,1.5694,1.5807,1.5853,1.5904,1.5976,1.6029,1.6102,1.6155,1.6256,1.6294,1.6381,1.6455,1.6584,1.6659,1.6744,1.6763,1.6781,1.6776,1.6758,1.6766,1.6763,1.6769,1.6781,1.6781,1.6781,1.6781,0,1.567,1.5704,1.5778,1.5865,1.5926,1.5997,1.607,1.6105,1.6192,1.6249,1.6334,1.6391,1.6504,1.659,1.6682,1.6736,1.6774,1.6782,1.6794,1.6777,1.6751,1.6768,1.672,1.678,1.678,1.6781,1.6781,1.6781,1.5678,1.5725,1.5813,1.5893,1.5956,1.6024,1.6078,1.6142,1.6215,1.6312,1.6351,1.6439,1.6524,1.6653,1.6707,1.6777,1.6784,1.6799,1.6804,1.6807,1.6805,1.6738,1.6794,1.6794,1.6794,1.6794,1.6794,0,1.5708,1.5767,1.5841,1.5942,1.6006,1.6036,1.6119,1.6171,1.6247,1.6323,1.6395,1.6495,1.6579,1.6661,1.675,1.679,1.681,1.6811,1.681,1.6822,1.6793,1.6776,1.6794,1.6794,1.6794,1.6794,1.6794,1.6794,1.5731,1.5814,1.5858,1.5973,1.6033,1.6119,1.6164,1.6228,1.6289,1.6398,1.6469,1.6522,1.6601,1.6697,1.6775,1.6798,1.6829,1.6826,1.6852,1.6824,1.6824,1.6823,1.6807,1.6831,1.6831,1.6876,1.6876,1.6876]}]]